Time,TemperatureF,DewpointF,PressureIn,WindDirection,WindDirectionDegrees,WindSpeedMPH,WindSpeedGustMPH,Humidity,HourlyPrecipIn,Conditions,Clouds,dailyrainin,SoftwareType,DateUTC
2013-08-22 00:00:00,76.8,72.3,30.01,SSE,148,2.0,3.0,86,0.00,,,0.05,Wunderground v.1.15,2013-08-22 04:00:00,
2013-08-22 00:05:00,76.8,72.3,30.01,South,172,3.0,3.0,86,0.00,,,0.00,Wunderground v.1.15,2013-08-22 04:05:00,
2013-08-22 00:15:00,75.3,69.8,30.01,SE,145,4.0,18.0,83,0.38,,,0.02,Wunderground v.1.15,2013-08-22 04:15:00,
2013-08-22 00:20:00,75.3,69.8,30.01,SE,143,4.0,4.0,83,0.32,,,0.02,Wunderground v.1.15,2013-08-22 04:20:00,
2013-08-22 00:25:00,75.3,69.8,30.01,SE,143,3.0,4.0,83,0.32,,,0.02,Wunderground v.1.15,2013-08-22 04:25:00,
2013-08-22 00:30:00,74.9,69.4,30.01,South,171,4.0,8.0,83,0.27,,,0.02,Wunderground v.1.15,2013-08-22 04:30:00,
2013-08-22 00:35:00,74.9,69.4,30.01,SSE,164,4.0,8.0,83,0.22,,,0.12,Wunderground v.1.15,2013-08-22 04:35:00,
2013-08-22 00:40:00,74.9,69.4,30.01,SSE,148,2.0,2.0,83,0.21,,,0.12,Wunderground v.1.15,2013-08-22 04:40:00,
2013-08-22 00:45:00,74.9,69.4,30.01,SSE,148,2.0,2.0,83,0.21,,,0.16,Wunderground v.1.15,2013-08-22 04:45:00,
2013-08-22 00:55:00,73.9,68.4,30.00,SSE,165,1.0,3.0,83,0.18,,,0.16,Wunderground v.1.15,2013-08-22 04:55:00,
2013-08-22 01:00:00,73.9,68.4,30.00,SSE,165,0.0,0.0,83,0.20,,,0.20,Wunderground v.1.15,2013-08-22 05:00:00,
2013-08-22 01:05:00,73.3,67.8,30.01,SSW,210,0.0,2.0,83,0.20,,,0.23,Wunderground v.1.15,2013-08-22 05:05:00,
2013-08-22 01:15:00,73.2,67.7,30.01,WSW,244,1.0,3.0,83,0.20,,,0.24,Wunderground v.1.15,2013-08-22 05:15:00,
2013-08-22 01:20:00,73.2,67.7,30.00,South,189,0.0,0.0,83,0.20,,,0.27,Wunderground v.1.15,2013-08-22 05:20:00,
2013-08-22 01:25:00,73.2,67.7,30.00,SSW,200,0.0,2.0,83,0.19,,,0.27,Wunderground v.1.15,2013-08-22 05:25:00,
2013-08-22 01:30:00,73.2,67.7,30.00,SW,217,1.0,1.0,83,0.19,,,0.27,Wunderground v.1.15,2013-08-22 05:30:00,
2013-08-22 01:35:00,73.0,67.5,30.00,SSW,192,1.0,1.0,83,0.17,,,0.31,Wunderground v.1.15,2013-08-22 05:35:00,
2013-08-22 01:45:00,72.7,67.2,30.00,South,172,0.0,1.0,83,0.16,,,0.34,Wunderground v.1.15,2013-08-22 05:45:00,
2013-08-22 01:50:00,72.1,66.6,29.99,South,169,0.0,0.0,83,0.17,,,0.34,Wunderground v.1.15,2013-08-22 05:50:00,
2013-08-22 01:55:00,72.0,66.6,29.99,South,172,0.0,0.0,83,0.15,,,0.34,Wunderground v.1.15,2013-08-22 05:55:00,
2013-08-22 02:05:00,71.5,66.1,29.99,SSE,154,1.0,1.0,83,0.15,,,0.40,Wunderground v.1.15,2013-08-22 06:05:00,
2013-08-22 02:15:00,71.3,65.9,29.99,SSE,154,0.0,0.0,83,0.15,,,0.40,Wunderground v.1.15,2013-08-22 06:15:00,
2013-08-22 02:20:00,71.3,65.9,29.98,SSE,154,0.0,0.0,83,0.15,,,0.40,Wunderground v.1.15,2013-08-22 06:20:00,
2013-08-22 02:25:00,71.3,65.9,29.98,SSE,154,0.0,0.0,83,0.15,,,0.40,Wunderground v.1.15,2013-08-22 06:25:00,
2013-08-22 02:35:00,71.3,65.9,29.98,SSE,154,0.0,0.0,83,0.15,,,0.40,Wunderground v.1.15,2013-08-22 06:35:00,
2013-08-22 02:45:00,71.3,65.9,29.98,SSE,154,0.0,0.0,83,0.15,,,0.40,Wunderground v.1.15,2013-08-22 06:45:00,
2013-08-22 02:50:00,71.3,65.9,29.97,SSE,154,0.0,0.0,83,0.15,,,0.40,Wunderground v.1.15,2013-08-22 06:50:00,
2013-08-22 02:55:00,71.3,65.9,29.97,SSE,154,0.0,0.0,83,0.15,,,0.40,Wunderground v.1.15,2013-08-22 06:55:00,
2013-08-22 03:00:00,71.3,65.9,29.97,SSE,154,0.0,0.0,83,0.15,,,0.40,Wunderground v.1.15,2013-08-22 07:00:00,
2013-08-22 03:05:00,71.3,65.9,29.97,SSE,154,0.0,0.0,83,0.15,,,0.40,Wunderground v.1.15,2013-08-22 07:05:00,
2013-08-22 03:15:00,71.3,65.9,29.97,SSE,154,0.0,0.0,83,0.15,,,0.40,Wunderground v.1.15,2013-08-22 07:15:00,
2013-08-22 03:20:00,71.3,65.9,29.97,SSE,154,0.0,0.0,83,0.15,,,0.40,Wunderground v.1.15,2013-08-22 07:20:00,
2013-08-22 03:25:00,71.3,65.9,29.97,SSE,154,0.0,0.0,83,0.15,,,0.40,Wunderground v.1.15,2013-08-22 07:25:00,
2013-08-22 03:30:00,71.3,65.9,29.97,SSE,154,0.0,0.0,83,0.15,,,0.40,Wunderground v.1.15,2013-08-22 07:30:00,
2013-08-22 03:35:00,71.3,65.9,29.96,SSE,154,0.0,0.0,83,0.15,,,0.40,Wunderground v.1.15,2013-08-22 07:35:00,
2013-08-22 03:40:00,71.3,65.9,29.96,SSE,154,0.0,0.0,83,0.15,,,0.40,Wunderground v.1.15,2013-08-22 07:40:00,
2013-08-22 03:45:00,71.3,65.9,29.96,SSE,154,0.0,0.0,83,0.15,,,0.40,Wunderground v.1.15,2013-08-22 07:45:00,
2013-08-22 03:50:00,71.3,65.9,29.96,SSE,154,0.0,0.0,83,0.15,,,0.40,Wunderground v.1.15,2013-08-22 07:50:00,
2013-08-22 03:55:00,71.3,65.9,29.96,SSE,154,0.0,0.0,83,0.15,,,0.40,Wunderground v.1.15,2013-08-22 07:55:00,
2013-08-22 04:00:00,71.3,65.9,29.96,SSE,154,0.0,0.0,83,0.15,,,0.40,Wunderground v.1.15,2013-08-22 08:00:00,
2013-08-22 04:05:00,71.3,65.9,29.96,SSE,154,0.0,0.0,83,0.15,,,0.40,Wunderground v.1.15,2013-08-22 08:05:00,
2013-08-22 04:15:00,71.3,65.9,29.96,SSE,154,0.0,0.0,83,0.15,,,0.40,Wunderground v.1.15,2013-08-22 08:15:00,
2013-08-22 04:20:00,71.3,65.9,29.95,SSE,154,0.0,0.0,83,0.15,,,0.40,Wunderground v.1.15,2013-08-22 08:20:00,
2013-08-22 04:25:00,71.3,65.9,29.95,SSE,154,0.0,0.0,83,0.15,,,0.40,Wunderground v.1.15,2013-08-22 08:25:00,
2013-08-22 04:30:00,71.3,65.9,29.95,SSE,154,0.0,0.0,83,0.15,,,0.40,Wunderground v.1.15,2013-08-22 08:30:00,
2013-08-22 04:35:00,71.3,65.9,29.95,SSE,154,0.0,0.0,83,0.15,,,0.40,Wunderground v.1.15,2013-08-22 08:35:00,
2013-08-22 04:40:00,71.3,65.9,29.95,SSE,154,0.0,0.0,83,0.15,,,0.40,Wunderground v.1.15,2013-08-22 08:40:00,
2013-08-22 04:50:00,71.3,65.9,29.95,SSE,154,0.0,0.0,83,0.15,,,0.40,Wunderground v.1.15,2013-08-22 08:50:00,
2013-08-22 04:55:00,71.3,65.9,29.95,South,172,0.0,0.0,83,0.00,,,0.40,Wunderground v.1.15,2013-08-22 08:55:00,
2013-08-22 05:00:00,71.3,65.9,29.95,South,172,0.0,0.0,83,0.00,,,0.40,Wunderground v.1.15,2013-08-22 09:00:00,
2013-08-22 05:05:00,71.3,65.9,29.95,South,172,0.0,0.0,83,0.00,,,0.40,Wunderground v.1.15,2013-08-22 09:05:00,
2013-08-22 05:15:00,71.3,65.9,29.95,South,172,0.0,0.0,83,0.00,,,0.40,Wunderground v.1.15,2013-08-22 09:15:00,
2013-08-22 05:20:00,71.3,65.9,29.95,South,172,0.0,0.0,83,0.00,,,0.40,Wunderground v.1.15,2013-08-22 09:20:00,
2013-08-22 05:30:00,71.3,65.9,29.95,South,172,0.0,0.0,83,0.00,,,0.40,Wunderground v.1.15,2013-08-22 09:30:00,
2013-08-22 05:35:00,71.3,65.9,29.95,South,172,0.0,0.0,83,0.00,,,0.40,Wunderground v.1.15,2013-08-22 09:35:00,
2013-08-22 05:40:00,71.3,65.9,29.95,SSE,168,0.0,0.0,83,0.00,,,0.40,Wunderground v.1.15,2013-08-22 09:40:00,
2013-08-22 05:45:00,71.3,65.9,29.95,SSE,168,0.0,0.0,83,0.00,,,0.40,Wunderground v.1.15,2013-08-22 09:45:00,
2013-08-22 05:50:00,71.8,66.4,29.95,SSE,168,0.0,0.0,83,0.00,,,0.40,Wunderground v.1.15,2013-08-22 09:50:00,
2013-08-22 05:55:00,71.8,66.4,29.95,SSE,168,0.0,0.0,83,0.00,,,0.40,Wunderground v.1.15,2013-08-22 09:55:00,
2013-08-22 06:05:00,72.0,66.6,29.95,SSE,168,0.0,0.0,83,0.00,,,0.51,Wunderground v.1.15,2013-08-22 10:05:00,
2013-08-22 06:15:00,72.0,69.5,29.95,South,172,0.0,0.0,92,0.00,,,0.51,Wunderground v.1.15,2013-08-22 10:15:00,
2013-08-22 06:20:00,72.0,69.9,29.96,South,172,0.0,0.0,93,0.00,,,0.51,Wunderground v.1.15,2013-08-22 10:20:00,
2013-08-22 06:25:00,72.0,69.9,29.96,South,172,0.0,0.0,93,0.00,,,0.51,Wunderground v.1.15,2013-08-22 10:25:00,
2013-08-22 06:30:00,72.0,69.9,29.96,South,172,0.0,0.0,93,0.00,,,0.51,Wunderground v.1.15,2013-08-22 10:30:00,
2013-08-22 06:35:00,72.0,69.9,29.96,South,172,0.0,0.0,93,0.00,,,0.51,Wunderground v.1.15,2013-08-22 10:35:00,
2013-08-22 06:45:00,72.0,69.9,29.96,South,172,0.0,0.0,93,0.00,,,0.51,Wunderground v.1.15,2013-08-22 10:45:00,
2013-08-22 06:50:00,72.0,69.9,29.96,South,172,0.0,0.0,93,0.00,,,0.51,Wunderground v.1.15,2013-08-22 10:50:00,
2013-08-22 08:30:00,74.9,72.7,29.96,SSW,208,2.0,2.0,93,0.00,,,0.53,Wunderground v.1.15,2013-08-22 12:30:00,
2013-08-22 08:35:00,74.9,72.7,29.96,SW,216,1.0,5.0,93,0.00,,,0.53,Wunderground v.1.15,2013-08-22 12:35:00,
2013-08-22 08:45:00,74.9,72.4,29.96,South,182,3.0,5.0,92,0.00,,,0.53,Wunderground v.1.15,2013-08-22 12:45:00,
2013-08-22 08:50:00,74.9,72.4,29.96,SSW,209,3.0,3.0,92,0.00,,,0.53,Wunderground v.1.15,2013-08-22 12:50:00,
2013-08-22 08:55:00,75.1,72.6,29.96,SSW,200,2.0,3.0,92,0.00,,,0.53,Wunderground v.1.15,2013-08-22 12:55:00,
2013-08-22 09:00:00,75.1,72.6,29.96,SSW,200,0.0,0.0,92,0.00,,,0.53,Wunderground v.1.15,2013-08-22 13:00:00,
2013-08-22 09:05:00,75.3,72.8,29.96,West,277,0.0,0.0,92,0.00,,,0.53,Wunderground v.1.15,2013-08-22 13:05:00,
2013-08-22 09:15:00,75.1,72.6,29.96,SW,215,1.0,2.0,92,0.00,,,0.53,Wunderground v.1.15,2013-08-22 13:15:00,
2013-08-22 09:20:00,75.3,72.8,29.96,SSE,162,1.0,1.0,92,0.00,,,0.53,Wunderground v.1.15,2013-08-22 13:20:00,
2013-08-22 09:25:00,75.3,72.8,29.96,SW,234,0.0,1.0,92,0.00,,,0.53,Wunderground v.1.15,2013-08-22 13:25:00,
2013-08-22 09:30:00,75.1,72.3,29.96,SW,224,1.0,6.0,91,0.00,,,0.53,Wunderground v.1.15,2013-08-22 13:30:00,
2013-08-22 09:35:00,75.1,72.3,29.96,South,189,1.0,6.0,91,0.00,,,0.53,Wunderground v.1.15,2013-08-22 13:35:00,
2013-08-22 09:40:00,75.4,72.6,29.96,SSE,160,0.0,0.0,91,0.00,,,0.53,Wunderground v.1.15,2013-08-22 13:40:00,
2013-08-22 09:45:00,75.4,72.3,29.96,WNW,285,0.0,3.0,90,0.00,,,0.53,Wunderground v.1.15,2013-08-22 13:45:00,
2013-08-22 09:50:00,75.3,71.8,29.96,SW,223,1.0,2.0,89,0.00,,,0.53,Wunderground v.1.15,2013-08-22 13:50:00,
2013-08-22 09:55:00,75.4,71.9,29.96,SW,226,0.0,2.0,89,0.00,,,0.53,Wunderground v.1.15,2013-08-22 13:55:00,
2013-08-22 10:00:00,75.6,72.1,29.96,WNW,287,0.0,0.0,89,0.00,,,0.53,Wunderground v.1.15,2013-08-22 14:00:00,
2013-08-22 10:05:00,75.6,71.8,29.96,SSW,212,0.0,0.0,88,0.00,,,0.53,Wunderground v.1.15,2013-08-22 14:05:00,
2013-08-22 10:10:00,75.8,72.0,29.96,SSW,213,0.0,0.0,88,0.00,,,0.53,Wunderground v.1.15,2013-08-22 14:10:00,
2013-08-22 10:20:00,76.5,72.3,29.96,SSW,213,0.0,0.0,87,0.00,,,0.53,Wunderground v.1.15,2013-08-22 14:20:00,
2013-08-22 10:25:00,76.5,72.3,29.96,South,189,1.0,1.0,87,0.00,,,0.53,Wunderground v.1.15,2013-08-22 14:25:00,
2013-08-22 10:30:00,76.5,70.9,29.96,SSW,202,1.0,3.0,83,0.00,,,0.53,Wunderground v.1.15,2013-08-22 14:30:00,
2013-08-22 10:35:00,76.5,70.9,29.95,SSW,212,1.0,3.0,83,0.00,,,0.53,Wunderground v.1.15,2013-08-22 14:35:00,
2013-08-22 10:40:00,77.0,70.7,29.95,SW,227,0.0,0.0,81,0.00,,,0.53,Wunderground v.1.15,2013-08-22 14:40:00,
2013-08-22 10:50:00,77.4,70.4,29.95,SSW,203,0.0,0.0,79,0.00,,,0.53,Wunderground v.1.15,2013-08-22 14:50:00,
2013-08-22 10:55:00,77.6,70.6,29.95,WNW,296,0.0,0.0,79,0.00,,,0.53,Wunderground v.1.15,2013-08-22 14:55:00,
2013-08-22 11:00:00,77.7,70.7,29.95,SSW,202,0.0,0.0,79,0.00,,,0.53,Wunderground v.1.15,2013-08-22 15:00:00,
2013-08-22 11:05:00,77.4,70.4,29.96,South,171,1.0,2.0,79,0.00,,,0.53,Wunderground v.1.15,2013-08-22 15:05:00,
2013-08-22 11:15:00,78.1,71.1,29.96,SSW,198,0.0,1.0,79,0.00,,,0.53,Wunderground v.1.15,2013-08-22 15:15:00,
2013-08-22 11:20:00,78.3,71.2,29.95,SSW,212,0.0,0.0,79,0.00,,,0.53,Wunderground v.1.15,2013-08-22 15:20:00,
2013-08-22 11:25:00,78.1,70.3,29.95,SSW,213,1.0,1.0,77,0.00,,,0.53,Wunderground v.1.15,2013-08-22 15:25:00,
2013-08-22 11:30:00,78.3,70.5,29.95,SSW,213,1.0,2.0,77,0.00,,,0.53,Wunderground v.1.15,2013-08-22 15:30:00,
2013-08-22 11:35:00,78.5,71.1,29.95,WNW,298,0.0,2.0,78,0.00,,,0.53,Wunderground v.1.15,2013-08-22 15:35:00,
2013-08-22 11:45:00,79.2,71.0,29.95,NW,308,1.0,6.0,76,0.00,,,0.53,Wunderground v.1.15,2013-08-22 15:45:00,
2013-08-22 11:50:00,79.2,71.0,29.95,WNW,302,1.0,1.0,76,0.00,,,0.53,Wunderground v.1.15,2013-08-22 15:50:00,
2013-08-22 12:00:00,79.2,71.0,29.95,WSW,247,1.0,1.0,76,0.00,,,0.53,Wunderground v.1.15,2013-08-22 16:00:00,
2013-08-22 12:05:00,79.4,71.2,29.95,West,260,1.0,1.0,76,0.00,,,0.53,Wunderground v.1.15,2013-08-22 16:05:00,
2013-08-22 12:15:00,79.6,71.0,29.95,West,263,1.0,1.0,75,0.00,,,0.53,Wunderground v.1.15,2013-08-22 16:15:00,
2013-08-22 12:20:00,79.8,70.4,29.95,West,268,1.0,1.0,73,0.00,,,0.53,Wunderground v.1.15,2013-08-22 16:20:00,
2013-08-22 12:30:00,80.5,71.0,29.95,WNW,294,0.0,0.0,73,0.00,,,0.53,Wunderground v.1.15,2013-08-22 16:30:00,
2013-08-22 12:35:00,80.9,71.4,29.94,NW,315,0.0,5.0,73,0.00,,,0.53,Wunderground v.1.15,2013-08-22 16:35:00,
2013-08-22 12:45:00,81.1,70.4,29.94,WSW,243,1.0,6.0,70,0.00,,,0.53,Wunderground v.1.15,2013-08-22 16:45:00,
2013-08-22 12:50:00,81.2,70.5,29.94,WSW,254,1.0,1.0,70,0.00,,,0.53,Wunderground v.1.15,2013-08-22 16:50:00,
2013-08-22 12:55:00,81.6,70.9,29.94,NW,318,1.0,1.0,70,0.00,,,0.53,Wunderground v.1.15,2013-08-22 16:55:00,
2013-08-22 13:00:00,81.6,70.4,29.94,WNW,289,0.0,0.0,69,0.00,,,0.53,Wunderground v.1.15,2013-08-22 17:00:00,
2013-08-22 13:05:00,82.0,70.0,29.93,NW,305,0.0,2.0,67,0.00,,,0.53,Wunderground v.1.15,2013-08-22 17:05:00,
2013-08-22 13:15:00,82.4,69.4,29.93,NNW,342,0.0,0.0,65,0.00,,,0.53,Wunderground v.1.15,2013-08-22 17:15:00,
2013-08-22 13:20:00,82.8,70.3,29.92,NNW,330,0.0,0.0,66,0.00,,,0.53,Wunderground v.1.15,2013-08-22 17:20:00,
2013-08-22 13:25:00,83.0,69.6,29.92,WNW,299,0.0,0.0,64,0.00,,,0.53,Wunderground v.1.15,2013-08-22 17:25:00,
2013-08-22 13:30:00,83.0,69.6,29.92,WNW,298,0.0,2.0,64,0.00,,,0.53,Wunderground v.1.15,2013-08-22 17:30:00,
2013-08-22 13:40:00,83.2,69.8,29.92,NW,319,0.0,0.0,64,0.00,,,0.53,Wunderground v.1.15,2013-08-22 17:40:00,
2013-08-22 13:45:00,83.4,69.9,29.92,SW,232,0.0,0.0,64,0.00,,,0.53,Wunderground v.1.15,2013-08-22 17:45:00,
2013-08-22 13:50:00,83.6,70.1,29.92,WNW,299,1.0,2.0,64,0.00,,,0.53,Wunderground v.1.15,2013-08-22 17:50:00,
2013-08-22 13:55:00,83.6,69.2,29.92,NW,311,1.0,2.0,62,0.00,,,0.53,Wunderground v.1.15,2013-08-22 17:55:00,
2013-08-22 14:00:00,83.8,69.4,29.92,SSW,202,0.0,3.0,62,0.00,,,0.53,Wunderground v.1.15,2013-08-22 18:00:00,
2013-08-22 14:05:00,83.8,69.4,29.91,SSW,195,2.0,3.0,62,0.00,,,0.53,Wunderground v.1.15,2013-08-22 18:05:00,
2013-08-22 14:15:00,83.8,68.4,29.91,SW,220,1.0,7.0,60,0.00,,,0.53,Wunderground v.1.15,2013-08-22 18:15:00,
2013-08-22 14:20:00,84.0,69.1,29.90,SW,220,1.0,1.0,61,0.00,,,0.53,Wunderground v.1.15,2013-08-22 18:20:00,
2013-08-22 14:25:00,84.3,69.4,29.90,WNW,287,0.0,1.0,61,0.00,,,0.53,Wunderground v.1.15,2013-08-22 18:25:00,
2013-08-22 14:30:00,84.5,70.0,29.90,WNW,291,0.0,0.0,62,0.00,,,0.53,Wunderground v.1.15,2013-08-22 18:30:00,
2013-08-22 14:35:00,84.7,70.2,29.89,WNW,291,0.0,0.0,62,0.00,,,0.53,Wunderground v.1.15,2013-08-22 18:35:00,
2013-08-22 14:40:00,84.9,70.4,29.89,WNW,291,0.0,0.0,62,0.00,,,0.53,Wunderground v.1.15,2013-08-22 18:40:00,
2013-08-22 14:50:00,85.7,69.2,29.88,SSE,160,1.0,1.0,58,0.00,,,0.53,Wunderground v.1.15,2013-08-22 18:50:00,
2013-08-22 14:55:00,85.5,69.0,29.88,SW,226,1.0,2.0,58,0.00,,,0.53,Wunderground v.1.15,2013-08-22 18:55:00,
2013-08-22 15:00:00,85.5,70.0,29.88,SSE,164,1.0,1.0,60,0.00,,,0.53,Wunderground v.1.15,2013-08-22 19:00:00,
2013-08-22 15:05:00,85.7,69.2,29.87,SSE,154,0.0,1.0,58,0.00,,,0.53,Wunderground v.1.15,2013-08-22 19:05:00,
2013-08-22 15:15:00,85.9,69.4,29.87,South,186,1.0,1.0,58,0.00,,,0.53,Wunderground v.1.15,2013-08-22 19:15:00,
2013-08-22 15:25:00,86.1,69.6,29.87,SW,229,1.0,3.0,58,0.00,,,0.53,Wunderground v.1.15,2013-08-22 19:25:00,
2013-08-22 15:30:00,86.1,68.6,29.87,SW,229,1.0,1.0,56,0.00,,,0.53,Wunderground v.1.15,2013-08-22 19:30:00,
2013-08-22 15:35:00,86.3,69.3,29.87,SSW,196,1.0,1.0,57,0.00,,,0.53,Wunderground v.1.15,2013-08-22 19:35:00,
2013-08-22 15:40:00,86.3,68.2,29.87,WSW,247,2.0,3.0,55,0.00,,,0.53,Wunderground v.1.15,2013-08-22 19:40:00,
2013-08-22 15:45:00,86.3,68.8,29.87,SSW,200,2.0,3.0,56,0.00,,,0.53,Wunderground v.1.15,2013-08-22 19:45:00,
2013-08-22 15:55:00,86.3,68.8,29.86,SSW,195,1.0,1.0,56,0.00,,,0.53,Wunderground v.1.15,2013-08-22 19:55:00,
2013-08-22 16:00:00,86.7,69.1,29.86,South,189,1.0,1.0,56,0.00,,,0.53,Wunderground v.1.15,2013-08-22 20:00:00,
2013-08-22 16:05:00,86.5,70.0,29.86,SSW,210,1.0,2.0,58,0.00,,,0.53,Wunderground v.1.15,2013-08-22 20:05:00,
2013-08-22 16:15:00,86.3,70.8,29.86,SSE,162,1.0,1.0,60,0.00,,,0.53,Wunderground v.1.15,2013-08-22 20:15:00,
2013-08-22 16:20:00,86.1,71.1,29.86,SSW,195,2.0,2.0,61,0.00,,,0.53,Wunderground v.1.15,2013-08-22 20:20:00,
2013-08-22 16:30:00,85.7,71.7,29.86,WSW,257,2.0,2.0,63,0.00,,,0.53,Wunderground v.1.15,2013-08-22 20:30:00,
2013-08-22 16:35:00,85.7,71.7,29.85,SW,216,2.0,6.0,63,0.00,,,0.53,Wunderground v.1.15,2013-08-22 20:35:00,
2013-08-22 16:45:00,85.7,71.2,29.85,SSW,199,1.0,2.0,62,0.00,,,0.53,Wunderground v.1.15,2013-08-22 20:45:00,
2013-08-22 16:50:00,85.7,70.2,29.85,SW,222,0.0,1.0,60,0.00,,,0.53,Wunderground v.1.15,2013-08-22 20:50:00,
2013-08-22 16:55:00,84.9,69.5,29.85,SW,236,1.0,1.0,60,0.00,,,0.53,Wunderground v.1.15,2013-08-22 20:55:00,
2013-08-22 17:05:00,84.5,70.0,29.85,SW,229,1.0,1.0,62,0.00,,,0.53,Wunderground v.1.15,2013-08-22 21:05:00,
2013-08-22 17:15:00,84.5,71.0,29.85,SW,236,0.0,1.0,64,0.00,,,0.53,Wunderground v.1.15,2013-08-22 21:15:00,
2013-08-22 17:20:00,84.3,70.3,29.85,SW,226,0.0,0.0,63,0.00,,,0.53,Wunderground v.1.15,2013-08-22 21:20:00,
2013-08-22 17:25:00,84.1,70.1,29.85,SSW,213,0.0,0.0,63,0.00,,,0.53,Wunderground v.1.15,2013-08-22 21:25:00,
2013-08-22 17:35:00,84.1,70.6,29.84,SW,226,0.0,0.0,64,0.00,,,0.53,Wunderground v.1.15,2013-08-22 21:35:00,
2013-08-22 17:45:00,84.1,70.1,29.84,SW,226,0.0,0.0,63,0.00,,,0.53,Wunderground v.1.15,2013-08-22 21:45:00,
2013-08-22 17:50:00,84.0,70.0,29.85,SSE,151,1.0,1.0,63,0.00,,,0.53,Wunderground v.1.15,2013-08-22 21:50:00,
2013-08-22 17:55:00,83.6,69.2,29.85,SW,220,1.0,7.0,62,0.00,,,0.53,Wunderground v.1.15,2013-08-22 21:55:00,
2013-08-22 18:00:00,83.4,69.5,29.85,West,281,1.0,3.0,63,0.00,,,0.53,Wunderground v.1.15,2013-08-22 22:00:00,
2013-08-22 18:05:00,83.2,68.3,29.84,WSW,243,1.0,3.0,61,0.00,,,0.53,Wunderground v.1.15,2013-08-22 22:05:00,
2013-08-22 18:15:00,82.8,67.5,29.84,SSW,205,0.0,2.0,60,0.00,,,0.53,Wunderground v.1.15,2013-08-22 22:15:00,
2013-08-22 18:20:00,82.8,68.4,29.84,SSW,205,0.0,0.0,62,0.00,,,0.53,Wunderground v.1.15,2013-08-22 22:20:00,
2013-08-22 18:25:00,82.8,67.5,29.84,SW,224,0.0,0.0,60,0.00,,,0.53,Wunderground v.1.15,2013-08-22 22:25:00,
2013-08-22 18:30:00,83.2,68.8,29.84,South,172,0.0,0.0,62,0.00,,,0.53,Wunderground v.1.15,2013-08-22 22:30:00,
2013-08-22 18:35:00,83.2,68.8,29.84,SW,233,0.0,0.0,62,0.00,,,0.53,Wunderground v.1.15,2013-08-22 22:35:00,
2013-08-22 18:40:00,83.2,68.8,29.84,SSE,148,0.0,0.0,62,0.00,,,0.53,Wunderground v.1.15,2013-08-22 22:40:00,
2013-08-22 18:45:00,82.6,68.3,29.84,SSW,198,1.0,3.0,62,0.00,,,0.53,Wunderground v.1.15,2013-08-22 22:45:00,
2013-08-22 18:50:00,82.2,67.9,29.84,SSW,209,1.0,1.0,62,0.00,,,0.53,Wunderground v.1.15,2013-08-22 22:50:00,
2013-08-22 18:55:00,82.2,67.9,29.84,South,188,2.0,2.0,62,0.00,,,0.53,Wunderground v.1.15,2013-08-22 22:55:00,
2013-08-22 19:00:00,82.0,67.7,29.84,South,174,2.0,2.0,62,0.00,,,0.53,Wunderground v.1.15,2013-08-22 23:00:00,
2013-08-22 19:05:00,81.4,67.1,29.84,SW,229,2.0,2.0,62,0.00,,,0.53,Wunderground v.1.15,2013-08-22 23:05:00,
2013-08-22 19:15:00,80.9,67.6,29.84,SW,226,2.0,2.0,64,0.00,,,0.53,Wunderground v.1.15,2013-08-22 23:15:00,
2013-08-22 19:20:00,80.7,67.4,29.84,WSW,246,1.0,1.0,64,0.00,,,0.53,Wunderground v.1.15,2013-08-22 23:20:00,
2013-08-22 19:25:00,80.5,67.2,29.84,SW,215,0.0,6.0,64,0.00,,,0.53,Wunderground v.1.15,2013-08-22 23:25:00,
2013-08-22 19:30:00,80.3,67.0,29.84,SSW,203,0.0,2.0,64,0.00,,,0.53,Wunderground v.1.15,2013-08-22 23:30:00,
2013-08-22 19:35:00,80.3,67.0,29.84,WSW,248,1.0,2.0,64,0.00,,,0.53,Wunderground v.1.15,2013-08-22 23:35:00,
2013-08-22 19:45:00,80.3,68.3,29.84,SW,233,1.0,1.0,67,0.00,,,0.53,Wunderground v.1.15,2013-08-22 23:45:00,
2013-08-22 19:55:00,80.3,67.9,29.84,SW,217,0.0,3.0,66,0.00,,,0.53,Wunderground v.1.15,2013-08-22 23:55:00,
2013-08-22 20:00:00,80.5,68.1,29.84,SW,217,0.0,0.0,66,0.00,,,0.53,Wunderground v.1.15,2013-08-23 00:00:00,
2013-08-22 20:05:00,80.5,68.1,29.85,SW,217,0.0,0.0,66,0.00,,,0.53,Wunderground v.1.15,2013-08-23 00:05:00,
2013-08-22 20:15:00,80.5,69.0,29.85,SW,223,0.0,0.0,68,0.00,,,0.53,Wunderground v.1.15,2013-08-23 00:15:00,
2013-08-22 20:20:00,80.3,68.8,29.85,SSW,196,0.0,0.0,68,0.00,,,0.53,Wunderground v.1.15,2013-08-23 00:20:00,
2013-08-22 20:30:00,80.1,69.0,29.85,SW,223,0.0,0.0,69,0.00,,,0.53,Wunderground v.1.15,2013-08-23 00:30:00,
2013-08-22 20:35:00,80.1,69.0,29.85,SW,219,0.0,0.0,69,0.00,,,0.53,Wunderground v.1.15,2013-08-23 00:35:00,
2013-08-22 20:45:00,79.9,69.2,29.85,SW,216,0.0,1.0,70,0.00,,,0.53,Wunderground v.1.15,2013-08-23 00:45:00,
2013-08-22 20:50:00,79.8,69.6,29.85,SW,216,0.0,0.0,71,0.00,,,0.53,Wunderground v.1.15,2013-08-23 00:50:00,
2013-08-22 20:55:00,79.6,69.4,29.85,SW,216,0.0,0.0,71,0.00,,,0.53,Wunderground v.1.15,2013-08-23 00:55:00,
2013-08-22 21:00:00,79.6,69.8,29.85,SW,216,0.0,0.0,72,0.00,,,0.53,Wunderground v.1.15,2013-08-23 01:00:00,
2013-08-22 21:05:00,79.4,69.6,29.86,SW,216,0.0,0.0,72,0.00,,,0.53,Wunderground v.1.15,2013-08-23 01:05:00,
2013-08-22 21:15:00,79.4,69.6,29.86,SSW,193,0.0,0.0,72,0.00,,,0.53,Wunderground v.1.15,2013-08-23 01:15:00,
2013-08-22 21:20:00,79.2,69.4,29.86,SSW,195,0.0,0.0,72,0.00,,,0.53,Wunderground v.1.15,2013-08-23 01:20:00,
2013-08-22 21:25:00,79.2,69.0,29.86,SSW,192,0.0,0.0,71,0.00,,,0.53,Wunderground v.1.15,2013-08-23 01:25:00,
2013-08-22 21:35:00,79.2,69.0,29.86,SSW,198,0.0,0.0,71,0.00,,,0.53,Wunderground v.1.15,2013-08-23 01:35:00,
2013-08-22 21:40:00,79.2,69.0,29.86,SSW,198,0.0,0.0,71,0.00,,,0.53,Wunderground v.1.15,2013-08-23 01:40:00,
2013-08-22 21:45:00,79.0,68.8,29.86,SSW,198,0.0,0.0,71,0.00,,,0.53,Wunderground v.1.15,2013-08-23 01:45:00,
2013-08-22 21:50:00,78.8,69.0,29.86,SSW,198,0.0,0.0,72,0.00,,,0.53,Wunderground v.1.15,2013-08-23 01:50:00,
2013-08-22 21:55:00,78.8,69.0,29.86,SSW,198,0.0,0.0,72,0.00,,,0.53,Wunderground v.1.15,2013-08-23 01:55:00,
2013-08-22 22:00:00,78.8,69.4,29.86,SSW,198,0.0,0.0,73,0.00,,,0.53,Wunderground v.1.15,2013-08-23 02:00:00,
2013-08-22 22:05:00,78.6,69.2,29.86,SSW,198,0.0,0.0,73,0.00,,,0.53,Wunderground v.1.15,2013-08-23 02:05:00,
2013-08-22 22:15:00,78.5,69.5,29.86,SSW,198,0.0,0.0,74,0.00,,,0.53,Wunderground v.1.15,2013-08-23 02:15:00,
2013-08-22 22:20:00,78.5,69.5,29.86,SSW,198,0.0,0.0,74,0.00,,,0.53,Wunderground v.1.15,2013-08-23 02:20:00,
2013-08-22 22:25:00,78.5,69.5,29.86,SSW,198,0.0,0.0,74,0.00,,,0.53,Wunderground v.1.15,2013-08-23 02:25:00,
2013-08-22 22:30:00,78.3,70.5,29.86,SSW,198,0.0,0.0,77,0.00,,,0.53,Wunderground v.1.15,2013-08-23 02:30:00,
2013-08-22 22:35:00,78.1,70.3,29.86,SSW,198,0.0,0.0,77,0.00,,,0.53,Wunderground v.1.15,2013-08-23 02:35:00,
2013-08-22 22:45:00,77.9,70.1,29.86,SSW,199,0.0,0.0,77,0.00,,,0.53,Wunderground v.1.15,2013-08-23 02:45:00,
2013-08-22 22:50:00,77.9,70.1,29.86,SSW,199,0.0,0.0,77,0.00,,,0.53,Wunderground v.1.15,2013-08-23 02:50:00,
2013-08-22 22:55:00,77.9,70.1,29.86,SSW,199,0.0,0.0,77,0.00,,,0.53,Wunderground v.1.15,2013-08-23 02:55:00,
2013-08-22 23:00:00,77.9,70.1,29.86,SSW,200,0.0,0.0,77,0.00,,,0.53,Wunderground v.1.15,2013-08-23 03:00:00,
2013-08-22 23:05:00,78.1,70.7,29.86,SSW,208,0.0,0.0,78,0.00,,,0.53,Wunderground v.1.15,2013-08-23 03:05:00,
2013-08-22 23:15:00,78.1,70.3,29.86,SSW,208,1.0,1.0,77,0.00,,,0.53,Wunderground v.1.15,2013-08-23 03:15:00,
2013-08-22 23:20:00,78.1,70.3,29.85,SSW,209,0.0,0.0,77,0.00,,,0.53,Wunderground v.1.15,2013-08-23 03:20:00,
2013-08-22 23:25:00,78.1,70.3,29.85,SSW,209,0.0,0.0,77,0.00,,,0.53,Wunderground v.1.15,2013-08-23 03:25:00,
2013-08-22 23:30:00,77.9,70.1,29.85,SW,222,1.0,1.0,77,0.00,,,0.53,Wunderground v.1.15,2013-08-23 03:30:00,
2013-08-22 23:35:00,77.9,69.7,29.85,SW,222,1.0,1.0,76,0.00,,,0.53,Wunderground v.1.15,2013-08-23 03:35:00,
2013-08-22 23:45:00,77.9,69.3,29.85,SW,223,0.0,1.0,75,0.00,,,0.53,Wunderground v.1.15,2013-08-23 03:45:00,
2013-08-22 23:55:00,78.1,69.1,29.85,SW,222,0.0,0.0,74,0.00,,,0.53,Wunderground v.1.15,2013-08-23 03:55:00,